This is the latest recevied weather packets stored in our database for station/object DJ2DS-13. If no packets are shown the sender has not sent any weather packets the latest 10 day(s).
| Time | Temp. | Humidity | Pressure | Rain* | Wind** | Luminosity | Snow |
|---|---|---|---|---|---|---|---|
| 1777835821 | 14.44° C | 92% | 1008.3 hPa | 0.25 mm | - | 0 W/m² | - |
| 1777835522 | 14.44° C | 92% | 1008.2 hPa | 0.25 mm | - | 0 W/m² | - |
| 1777835222 | 14.44° C | 92% | 1008.1 hPa | 0.25 mm | - | 7 W/m² | - |
| 1777834921 | 14.44° C | 92% | 1008.1 hPa | 0.25 mm | - | 9 W/m² | - |
| 1777834621 | 14.44° C | 92% | 1008.1 hPa | 0 mm | - | 7 W/m² | - |
| 1777834323 | 14.44° C | 92% | 1008.1 hPa | 0 mm | - | 7 W/m² | - |
| 1777834023 | 14.44° C | 92% | 1008 hPa | 0 mm | - | 5 W/m² | - |
| 1777833722 | 14.44° C | 92% | 1008 hPa | 0 mm | - | 7 W/m² | - |
| 1777833421 | 14.44° C | 92% | 1007.9 hPa | 0 mm | - | 12 W/m² | - |
| 1777833119 | 14.44° C | 92% | 1007.9 hPa | 0 mm | - | 7 W/m² | - |
| 1777832817 | 14.44° C | 92% | 1007.9 hPa | 0 mm | - | 5 W/m² | - |
| 1777832518 | 14.44° C | 92% | 1007.9 hPa | 0.25 mm | - | 7 W/m² | - |
| 1777832216 | 14.44° C | 92% | 1007.9 hPa | 0.25 mm | - | 16 W/m² | - |
| 1777831916 | 14.44° C | 91% | 1007.7 hPa | 0.25 mm | - | 21 W/m² | - |
| 1777831615 | 14.44° C | 91% | 1007.7 hPa | 0.25 mm | - | 16 W/m² | - |
| 1777831316 | 14.44° C | 92% | 1007.6 hPa | 0.25 mm | - | 18 W/m² | - |
| 1777831013 | 14.44° C | 91% | 1007.8 hPa | 0.25 mm | - | 19 W/m² | - |
| 1777830713 | 14.44° C | 91% | 1007.7 hPa | 0.25 mm | - | 21 W/m² | - |
| 1777830423 | 14.44° C | 91% | 1007.7 hPa | 0.51 mm | - | 18 W/m² | - |
| 1777830119 | 14.44° C | 91% | 1007.7 hPa | 0.51 mm | - | 14 W/m² | - |
| 1777829820 | 14.44° C | 91% | 1007.6 hPa | 0.51 mm | - | 16 W/m² | - |
| 1777829519 | 14.44° C | 91% | 1007.7 hPa | 0.51 mm | - | 18 W/m² | - |
| 1777829217 | 14.44° C | 91% | 1007.7 hPa | 0.76 mm | - | 33 W/m² | - |
| 1777828915 | 14.44° C | 91% | 1007.8 hPa | 0.76 mm | - | 33 W/m² | - |
| 1777828612 | 14.44° C | 91% | 1007.8 hPa | 1.27 mm | - | 42 W/m² | - |
* Rain latest hour (hover to see other rain measurements)
** Current wind speed in m/s (hover to see current wind gust speed)